DW7126 Weather Reports


time (UTC)temp
C
wind
direction
speed
KPH
gust
KPH
rain 1hr
cm
rain 24hr
cm
rain mn
cm
humidity
%
barometer
mb
20180820132043 27 217 22.5 33.8 0.00 0.00 0.00 45 1015.6
20180820131535 27 250 24.1 33.8 0.00 0.00 0.00 45 1015.8
20180820131033 28 250 24.1 32.2 0.00 0.00 0.00 44 1015.7
20180820130532 28 258 24.1 30.6 0.00 0.00 0.00 43 1015.7
20180820130119 28 217 22.5 32.2 0.00 0.00 0.00 42 1015.3
20180820130041 28 272 24.1 32.2 0.00 0.00 0.00 41 1015.6
20180820125530 28 259 25.7 35.4 0.00 0.00 0.00 41 1015.6
20180820125043 28 236 20.9 35.4 0.00 0.00 0.00 41 1015.5
20180820124626 28 211 14.5 25.7 0.00 0.00 0.00 40 1015.3
20180820124534 29 211 16.1 25.7 0.00 0.00 0.00 40 1015.7
20180820124030 28 223 17.7 25.7 0.00 0.00 0.00 41 1015.6
20180820123525 28 260 16.1 29.0 0.00 0.00 0.00 44 1015.7
20180820123046 28 237 16.1 27.4 0.00 0.00 0.00 46 1015.6
20180820122535 28 234 16.1 25.7 0.00 0.00 0.00 45 1015.7
20180820122043 30 262 19.3 27.4 0.00 0.00 0.00 43 1015.7
20180820121531 31 234 20.9 27.4 0.00 0.00 0.00 40 1015.6
20180820121506 31 254 19.3 27.4 0.00 0.00 0.00 40 1015.3
20180820121036 31 250 19.3 25.7 0.00 0.00 0.00 39 1015.6
20180820120530 32 313 14.5 19.3 0.00 0.00 0.00 41 1015.6
20180820120035 31 295 12.9 16.1 0.00 0.00 0.00 40 1015.6
20180820115525 32 172 4.8 17.7 0.00 0.00 0.00 37 1015.6
20180820115042 33 161 11.3 17.7 0.00 0.00 0.00 38 1015.6
20180820114530 32 91 6.4 20.9 0.00 0.00 0.00 36 1015.7
20180820114026 32 76 11.3 20.9 0.00 0.00 0.00 36 1015.7
20180820113542 32 164 8.0 20.9 0.00 0.00 0.00 37 1015.8
20180820113056 32 184 8.0 17.7 0.00 0.00 0.00 36 1015.8
20180820113036 32 171 6.4 17.7 0.00 0.00 0.00 36 1015.4
20180820112544 32 138 12.9 17.7 0.00 0.00 0.00 37 1015.8
20180820112043 32 192 9.7 14.5 0.00 0.00 0.00 37 1015.8
20180820111605 31 169 9.7 17.7 0.00 0.00 0.00 38 1015.4
20180820111537 31 221 11.3 17.7 0.00 0.00 0.00 37 1015.8
20180820111050 31 205 11.3 16.1 0.00 0.00 0.00 37 1015.8
20180820110537 32 122 11.3 17.7 0.00 0.00 0.00 38 1015.8
20180820110058 32 80 11.3 24.1 0.00 0.00 0.00 38 1015.8
20180820105537 31 98 16.1 24.1 0.00 0.00 0.00 38 1015.8
20180820105036 31 106 12.9 19.3 0.00 0.00 0.00 39 1015.8
20180820104533 31 115 11.3 19.3 0.00 0.00 0.00 40 1015.8
20180820104033 31 123 11.3 19.3 0.00 0.00 0.00 40 1015.9
20180820103535 31 89 4.8 16.1 0.00 0.00 0.00 41 1015.9
20180820103036 31 92 12.9 17.7 0.00 0.00 0.00 41 1015.8
20180820103016 31 122 11.3 17.7 0.00 0.00 0.00 41 1015.4
20180820102523 31 133 8.0 17.7 0.00 0.00 0.00 42 1015.8
20180820102032 30 57 9.7 17.7 0.00 0.00 0.00 42 1015.8
20180820101552 31 98 9.7 17.7 0.00 0.00 0.00 42 1015.8
20180820101536 31 120 9.7 17.7 0.00 0.00 0.00 42 1015.5
20180820101049 30 81 6.4 16.1 0.00 0.00 0.00 43 1015.8
20180820100536 30 130 9.7 14.5 0.00 0.00 0.00 43 1015.7
20180820100043 30 150 9.7 17.7 0.00 0.00 0.00 44 1015.7
20180820100009 30 196 9.7 17.7 0.00 0.00 0.00 44 1015.4
20180820095547 30 197 9.7 17.7 0.00 0.00 0.00 44 1015.7
20180820095031 30 127 9.7 14.5 0.00 0.00 0.00 44 1015.6
20180820094535 30 193 8.0 16.1 0.00 0.00 0.00 45 1015.6
20180820094037 29 187 8.0 17.7 0.00 0.00 0.00 46 1015.5
20180820093525 29 165 11.3 17.7 0.00 0.00 0.00 46 1015.5
20180820093032 29 190 6.4 14.5 0.00 0.00 0.00 47 1015.5
20180820092523 28 203 11.3 14.5 0.00 0.00 0.00 46 1015.5
20180820092027 29 190 6.4 11.3 0.00 0.00 0.00 46 1015.4
20180820091539 29 98 9.7 14.5 0.00 0.00 0.00 47 1015.4
20180820091040 28 93 8.0 14.5 0.00 0.00 0.00 48 1015.4
20180820090535 27 115 3.2 6.4 0.00 0.00 0.00 54 1015.4
20180820090036 27 322 3.2 6.4 0.00 0.00 0.00 56 1015.3
20180820090015 26 321 1.6 6.4 0.00 0.00 0.00 56 1015.1
20180820085535 26 302 0.0 4.8 0.00 0.00 0.00 59 1015.3
20180820085043 25 280 1.6 3.2 0.00 0.00 0.00 60 1015.3
20180820084526 25 142 0.0 3.2 0.00 0.00 0.00 62 1015.2
20180820084036 24 141 0.0 3.2 0.00 0.00 0.00 64 1015.2
20180820083540 23 141 0.0 0.0 0.00 0.00 0.00 66 1015.2
20180820083045 23 141 0.0 1.6 0.00 0.00 0.00 68 1015.2
20180820083015 22 141 0.0 1.6 0.00 0.00 0.00 68 1014.9
20180820082538 22 141 0.0 3.2 0.00 0.00 0.00 70 1015.2
20180820082044 22 141 0.0 3.2 0.00 0.00 0.00 73 1015.1
20180820081554 21 141 1.6 3.2 0.00 0.00 0.00 73 1015.1
20180820081524 21 141 0.0 3.2 0.00 0.00 0.00 72 1014.8
20180820081032 21 74 0.0 1.6 0.00 0.00 0.00 73 1015.1
20180820080533 21 313 0.0 1.6 0.00 0.00 0.00 75 1015.1
20180820080049 20 313 0.0 4.8 0.00 0.00 0.00 76 1015.1
20180820080022 20 313 0.0 4.8 0.00 0.00 0.00 76 1014.8
20180820075551 20 313 1.6 4.8 0.00 0.00 0.00 78 1015.0
20180820075036 20 329 0.0 1.6 0.00 0.00 0.00 80 1015.1
20180820074555 19 329 0.0 0.0 0.00 0.00 0.00 80 1015.1
20180820074552 18 329 0.0 0.0 0.00 0.00 0.00 80 1014.8
20180820074020 18 329 0.0 0.0 0.00 0.00 0.00 81 1015.1
20180820073544 18 329 0.0 0.0 0.00 0.00 0.00 81 1015.0
20180820073039 18 329 0.0 1.6 0.00 0.00 0.00 82 1015.0
20180820073011 18 329 0.0 3.2 0.00 0.00 0.00 82 1014.7
20180820072545 18 329 0.0 4.8 0.00 0.00 0.00 82 1014.9
20180820072036 18 247 0.0 4.8 0.00 0.00 0.00 83 1014.9
20180820071556 17 238 1.6 3.2 0.00 0.00 0.00 84 1014.8
20180820071528 17 238 1.6 3.2 0.00 0.00 0.00 85 1014.5
20180820071037 17 204 0.0 3.2 0.00 0.00 0.00 85 1014.8
20180820070535 16 168 0.0 1.6 0.00 0.00 0.00 86 1014.8
20180820070052 16 79 0.0 3.2 0.00 0.00 0.00 86 1014.7
20180820070026 16 79 0.0 3.2 0.00 0.00 0.00 86 1014.4
20180820065525 16 76 1.6 3.2 0.00 0.00 0.00 86 1014.7
20180820065032 16 71 0.0 3.2 0.00 0.00 0.00 87 1014.6
20180820064558 16 71 0.0 3.2 0.00 0.00 0.00 87 1014.6
20180820064549 16 71 0.0 3.2 0.00 0.00 0.00 87 1014.3
20180820064032 16 70 0.0 3.2 0.00 0.00 0.00 86 1014.6
20180820063529 16 69 0.0 3.2 0.00 0.00 0.00 86 1014.6
20180820063041 16 69 0.0 3.2 0.00 0.00 0.00 86 1014.3
20180820062519 16 67 0.0 6.4 0.00 0.00 0.00 86 1014.5
20180820062037 16 65 3.2 6.4 0.00 0.00 0.00 85 1014.5
20180820061534 16 76 4.8 4.8 0.00 0.00 0.00 86 1014.5
20180820061025 16 94 1.6 4.8 0.00 0.00 0.00 88 1014.4
20180820060531 16 212 0.0 4.8 0.00 0.00 0.00 88 1014.5
20180820060035 16 213 3.2 4.8 0.00 0.00 0.00 88 1014.5
20180820055538 16 215 0.0 0.0 0.00 0.00 0.00 87 1014.4
20180820055044 16 215 0.0 0.0 0.00 0.00 0.00 88 1014.4
20180820054532 16 215 0.0 0.0 0.00 0.00 0.00 88 1014.3
20180820054526 16 215 0.0 0.0 0.00 0.00 0.00 88 1014.0
20180820054041 16 215 0.0 1.6 0.00 0.00 0.00 88 1014.3
20180820053552 16 215 0.0 1.6 0.00 0.00 0.00 88 1014.2
20180820053042 16 215 1.6 3.2 0.00 0.00 0.00 88 1014.2
20180820053018 16 215 0.0 3.2 0.00 0.00 0.00 88 1013.9
20180820052534 16 215 1.6 4.8 0.00 0.00 0.00 88 1014.2
20180820052038 16 215 3.2 3.2 0.00 0.00 0.00 88 1014.1
20180820051527 16 215 1.6 3.2 0.00 0.00 0.00 88 1014.0
20180820051040 16 215 0.0 1.6 0.00 0.00 0.00 88 1014.0
20180820050534 16 215 0.0 3.2 0.00 0.00 0.00 88 1014.0
20180820050030 16 215 1.6 3.2 0.00 0.00 0.00 87 1013.9
20180820045534 16 215 0.0 3.2 0.00 0.00 0.00 87 1014.0
20180820045035 16 215 0.0 3.2 0.00 0.00 0.00 87 1014.0
20180820044554 16 215 0.0 3.2 0.00 0.00 0.00 87 1013.7
20180820044539 16 215 1.6 3.2 0.00 0.00 0.00 87 1014.0
20180820044020 16 215 0.0 1.6 0.00 0.00 0.00 87 1014.0
20180820043527 16 215 0.0 0.0 0.00 0.00 0.00 86 1014.1
20180820043145 16 215 0.0 0.0 0.00 0.00 0.00 86 1013.8
20180820043054 16 215 0.0 0.0 0.00 0.00 0.00 86 1014.1
20180820042554 16 215 0.0 0.0 0.00 0.00 0.00 86 1014.1
20180820042031 16 215 0.0 0.0 0.00 0.00 0.00 86 1014.1
20180820041634 16 215 0.0 1.6 0.00 0.00 0.00 85 1013.8
20180820041534 16 215 0.0 1.6 0.00 0.00 0.00 85 1014.1
20180820041050 17 215 0.0 1.6 0.00 0.00 0.00 86 1014.1
20180820040530 17 215 0.0 1.6 0.00 0.00 0.00 86 1014.2
20180820040131 16 215 0.0 1.6 0.00 0.00 0.00 86 1013.8
20180820040036 17 215 0.0 1.6 0.00 0.00 0.00 86 1014.1
20180820035526 17 215 0.0 3.2 0.00 0.00 0.00 86 1014.2
20180820035033 17 215 1.6 3.2 0.00 0.00 0.00 85 1014.2
20180820034526 17 215 0.0 0.0 0.00 0.00 0.00 86 1014.2
20180820034037 17 215 0.0 0.0 0.00 0.00 0.00 85 1014.2
20180820033528 17 215 0.0 0.0 0.00 0.00 0.00 85 1014.2
20180820033055 17 215 0.0 0.0 0.00 0.00 0.00 85 1014.3
20180820033030 17 215 0.0 0.0 0.00 0.00 0.00 85 1014.0
20180820032543 17 215 0.0 3.2 0.00 0.00 0.00 85 1014.2
20180820032030 17 215 0.0 3.2 0.00 0.00 0.00 86 1014.4
20180820031554 17 215 0.0 3.2 0.00 0.00 0.00 84 1014.3
20180820031534 16 215 0.0 3.2 0.00 0.00 0.00 83 1014.1
20180820031019 17 215 0.0 0.0 0.00 0.00 0.00 86 1014.4
20180820030553 17 215 0.0 1.6 0.00 0.00 0.00 85 1014.5
20180820030046 16 215 0.0 3.2 0.00 0.00 0.00 85 1014.2
20180820030025 17 215 0.0 3.2 0.00 0.00 0.00 85 1014.5
20180820025522 17 215 0.0 3.2 0.00 0.00 0.00 85 1014.5
20180820025035 16 215 1.6 3.2 0.00 0.00 0.00 85 1014.5
20180820024527 16 215 0.0 4.8 0.00 0.00 0.00 84 1014.5
20180820024039 16 215 3.2 6.4 0.00 0.00 0.00 84 1014.5
20180820023533 16 215 3.2 6.4 0.00 0.00 0.00 83 1014.5
20180820023041 17 215 0.0 4.8 0.00 0.00 0.00 83 1014.5
20180820022540 17 215 3.2 4.8 0.00 0.00 0.00 82 1014.5
20180820022044 17 215 3.2 4.8 0.00 0.00 0.00 83 1014.6
20180820021609 16 215 0.0 3.2 0.00 0.00 0.00 83 1014.4
20180820021535 17 215 0.0 3.2 0.00 0.00 0.00 83 1014.6
20180820021044 17 215 0.0 3.2 0.00 0.00 0.00 83 1014.7
20180820020525 17 215 0.0 1.6 0.00 0.00 0.00 82 1014.7
20180820020051 17 215 0.0 0.0 0.00 0.00 0.00 82 1014.7
20180820020023 17 215 0.0 0.0 0.00 0.00 0.00 82 1014.5
20180820015527 17 215 0.0 0.0 0.00 0.00 0.00 81 1014.7
20180820015022 17 215 0.0 3.2 0.00 0.00 0.00 81 1014.7
20180820014540 17 215 1.6 4.8 0.00 0.00 0.00 81 1014.8
20180820014027 17 215 0.0 4.8 0.00 0.00 0.00 82 1014.8
20180820013520 17 214 1.6 3.2 0.00 0.00 0.00 83 1014.8
20180820013033 17 214 1.6 4.8 0.00 0.00 0.00 83 1014.9
20180820012522 16 214 4.8 4.8 0.00 0.00 0.00 82 1014.9
20180820012028 17 214 3.2 4.8 0.00 0.00 0.00 81 1014.9
20180820011535 17 214 1.6 3.2 0.00 0.00 0.00 81 1015.0
20180820011025 17 214 0.0 1.6 0.00 0.00 0.00 81 1015.0
20180820010541 17 214 0.0 0.0 0.00 0.00 0.00 81 1015.0
20180820010027 17 214 0.0 0.0 0.00 0.00 0.00 80 1015.0
20180820005531 17 214 0.0 0.0 0.00 0.00 0.00 80 1015.0
20180820005021 17 214 0.0 0.0 0.00 0.00 0.00 79 1015.1
20180820004535 18 214 0.0 1.6 0.00 0.00 0.00 80 1015.1
20180820004037 18 214 0.0 1.6 0.00 0.00 0.00 80 1015.2
20180820003538 18 214 0.0 1.6 0.00 0.00 0.00 79 1015.2
20180820003028 18 214 0.0 0.0 0.00 0.00 0.00 79 1015.3
20180820002530 18 214 0.0 0.0 0.00 0.00 0.00 78 1015.3
20180820002022 18 214 0.0 0.0 0.00 0.00 0.00 78 1015.4
20180820001531 18 214 0.0 0.0 0.00 0.00 0.00 77 1015.4
20180820001035 18 214 0.0 0.0 0.00 0.00 0.00 77 1015.5
20180820000520 18 214 0.0 0.0 0.00 0.00 0.00 76 1015.5
20180820000033 18 214 0.0 0.0 0.00 0.00 0.00 76 1015.5
20180819235522 19 214 0.0 1.6 0.00 0.00 0.00 76 1015.5
20180819235037 19 214 0.0 1.6 0.00 0.00 0.00 76 1015.6
20180819234534 18 214 0.0 0.0 0.00 0.00 0.00 74 1015.7
20180819234520 18 214 0.0 0.0 0.00 0.00 0.00 74 1015.4
20180819234044 18 214 0.0 0.0 0.00 0.00 0.00 74 1015.7
20180819233527 18 214 0.0 1.6 0.00 0.00 0.00 74 1015.7
20180819233058 18 214 0.0 3.2 0.00 0.00 0.00 73 1015.8
20180819232529 18 214 1.6 3.2 0.00 0.00 0.00 73 1015.8
20180819232036 18 214 0.0 0.0 0.00 0.00 0.00 72 1015.9
20180819231538 18 214 0.0 0.0 0.00 0.00 0.00 70 1015.8
20180819231507 18 214 0.0 0.0 0.00 0.00 0.00 70 1015.5
20180819231029 18 214 0.0 0.0 0.00 0.00 0.00 71 1015.9
20180819230543 18 214 0.0 1.6 0.00 0.00 0.00 70 1015.8
20180819230033 19 214 0.0 3.2 0.00 0.00 0.00 70 1015.9
20180819230005 19 214 0.0 3.2 0.00 0.00 0.00 73 1015.5
20180819225534 20 214 1.6 3.2 0.00 0.00 0.00 72 1015.9
20180819225038 20 214 0.0 0.0 0.00 0.00 0.00 69 1015.9
20180819224533 20 214 0.0 0.0 0.00 0.00 0.00 68 1016.0
20180819224506 19 214 0.0 0.0 0.00 0.00 0.00 68 1015.7
20180819224049 20 214 0.0 1.6 0.00 0.00 0.00 67 1016.0
20180819223528 20 214 0.0 1.6 0.00 0.00 0.00 65 1016.1
20180819223047 20 214 0.0 3.2 0.00 0.00 0.00 65 1016.0
20180819223027 19 214 0.0 3.2 0.00 0.00 0.00 66 1015.7
20180819222532 19 214 0.0 3.2 0.00 0.00 0.00 65 1016.0
20180819222034 19 214 1.6 3.2 0.00 0.00 0.00 65 1016.0
20180819221525 19 214 1.6 3.2 0.00 0.00 0.00 64 1016.0
20180819221021 19 214 0.0 0.0 0.00 0.00 0.00 63 1016.0
20180819220529 20 214 0.0 0.0 0.00 0.00 0.00 62 1016.0
20180819220037 20 214 0.0 0.0 0.00 0.00 0.00 63 1016.0
20180819215545 20 214 0.0 0.0 0.00 0.00 0.00 62 1016.0
20180819215050 20 214 0.0 0.0 0.00 0.00 0.00 63 1016.0
20180819214533 20 214 0.0 4.8 0.00 0.00 0.00 63 1016.0
20180819214024 19 214 1.6 4.8 0.00 0.00 0.00 63 1016.1
20180819213524 19 214 4.8 4.8 0.00 0.00 0.00 62 1016.1
20180819213046 20 214 1.6 4.8 0.00 0.00 0.00 58 1016.1
20180819213011 20 214 1.6 4.8 0.00 0.00 0.00 57 1015.7
20180819212557 21 214 3.2 4.8 0.00 0.00 0.00 58 1016.0
20180819212034 21 214 1.6 4.8 0.00 0.00 0.00 58 1016.0
20180819211542 21 214 1.6 4.8 0.00 0.00 0.00 57 1016.1
20180819211022 21 214 3.2 4.8 0.00 0.00 0.00 56 1016.1
20180819210535 21 214 3.2 4.8 0.00 0.00 0.00 55 1016.1
20180819210022 21 214 3.2 4.8 0.00 0.00 0.00 56 1016.1
20180819205531 21 265 1.6 4.8 0.00 0.00 0.00 56 1016.1
20180819205035 21 293 0.0 3.2 0.00 0.00 0.00 56 1016.1
20180819204533 21 293 0.0 3.2 0.00 0.00 0.00 55 1016.0
20180819204031 21 293 1.6 3.2 0.00 0.00 0.00 54 1016.0
20180819203536 21 322 1.6 3.2 0.00 0.00 0.00 53 1016.1
20180819203033 21 322 0.0 3.2 0.00 0.00 0.00 51 1016.0
20180819202547 22 322 0.0 6.4 0.00 0.00 0.00 52 1016.0
20180819202041 22 322 3.2 6.4 0.00 0.00 0.00 50 1016.0
20180819201553 22 338 1.6 6.4 0.00 0.00 0.00 48 1015.9
20180819201519 22 338 1.6 6.4 0.00 0.00 0.00 48 1015.6
20180819201021 23 348 4.8 8.0 0.00 0.00 0.00 47 1015.9
20180819200536 23 344 4.8 8.0 0.00 0.00 0.00 46 1015.9
20180819200100 23 344 3.2 8.0 0.00 0.00 0.00 45 1015.5
20180819200029 23 344 4.8 8.0 0.00 0.00 0.00 45 1015.8
20180819195542 23 345 4.8 9.7 0.00 0.00 0.00 45 1015.9
20180819195040 23 346 3.2 9.7 0.00 0.00 0.00 44 1015.8
20180819194534 23 338 4.8 9.7 0.00 0.00 0.00 44 1015.8
20180819194040 24 346 3.2 8.0 0.00 0.00 0.00 44 1015.8
20180819193538 24 339 4.8 8.0 0.00 0.00 0.00 43 1015.8
20180819193033 25 15 4.8 11.3 0.00 0.00 0.00 43 1015.7
20180819193007 24 349 3.2 11.3 0.00 0.00 0.00 43 1015.4
20180819192522 25 346 6.4 11.3 0.00 0.00 0.00 43 1015.7
20180819192020 25 348 6.4 8.0 0.00 0.00 0.00 43 1015.8
20180819191606 25 344 3.2 9.7 0.00 0.00 0.00 42 1015.4
20180819191526 26 355 4.8 9.7 0.00 0.00 0.00 42 1015.7
20180819191049 26 345 4.8 9.7 0.00 0.00 0.00 41 1015.6
20180819190556 26 5 4.8 9.7 0.00 0.00 0.00 41 1015.6
20180819190047 26 5 6.4 9.7 0.00 0.00 0.00 40 1015.6
20180819190037 26 14 4.8 9.7 0.00 0.00 0.00 40 1015.3
20180819185535 27 10 6.4 11.3 0.00 0.00 0.00 41 1015.5
20180819185034 27 30 4.8 11.3 0.00 0.00 0.00 41 1015.5
20180819184527 27 12 4.8 11.3 0.00 0.00 0.00 39 1015.4
20180819184019 27 5 4.8 11.3 0.00 0.00 0.00 38 1015.3
20180819183537 28 9 4.8 11.3 0.00 0.00 0.00 37 1015.3
20180819183047 28 335 6.4 12.9 0.00 0.00 0.00 36 1015.3
20180819183024 28 346 6.4 12.9 0.00 0.00 0.00 36 1015.0
20180819182522 28 339 4.8 12.9 0.00 0.00 0.00 36 1015.3
20180819182036 28 348 6.4 12.9 0.00 0.00 0.00 35 1015.3
20180819181615 28 24 4.8 9.7 0.00 0.00 0.00 34 1015.0
20180819181522 29 348 6.4 9.7 0.00 0.00 0.00 34 1015.2
20180819181045 29 13 6.4 12.9 0.00 0.00 0.00 33 1015.3
20180819180531 29 344 6.4 14.5 0.00 0.00 0.00 33 1015.3
20180819180027 30 17 8.0 14.5 0.00 0.00 0.00 33 1015.3
20180819175530 30 351 6.4 11.3 0.00 0.00 0.00 34 1015.3
20180819175021 29 23 6.4 12.9 0.00 0.00 0.00 33 1015.2
20180819174531 29 23 9.7 14.5 0.00 0.00 0.00 33 1015.2
20180819174022 30 5 9.7 16.1 0.00 0.00 0.00 31 1015.1
20180819173547 30 22 8.0 16.1 0.00 0.00 0.00 33 1015.1
20180819173045 29 16 8.0 19.3 0.00 0.00 0.00 32 1014.8
20180819173033 30 355 8.0 19.3 0.00 0.00 0.00 31 1015.1
20180819172524 30 324 11.3 19.3 0.00 0.00 0.00 31 1015.1
20180819172020 30 24 11.3 19.3 0.00 0.00 0.00 31 1015.1
20180819171539 30 15 12.9 24.1 0.00 0.00 0.00 32 1015.2
20180819171031 31 5 16.1 24.1 0.00 0.00 0.00 31 1015.2